Tracking 35274 objects as of 10-Sep-2026
HD Live streaming from Space Station
objects crossing your sky now

FLOCK 4V 14


FLOCK 4V 14 is no longer on orbit
FLOCK 4V 14 is classified as:


NORAD ID: 46286
Int'l Code: 2020-061Q
Launch date: September 3, 2020
Source: United States (US)
Launch site: FRENCH GUIANA (FRGUI)
Decay date: 2024-11-23
Your satellite tracking list
Your tracking list is empty




NASA's NSSDC Master Catalog

Two Line Element Set (TLE):
1 46286U 20061Q   24324.73007254  .13300301  23711-5  12998-2 0  9999
2 46286  97.3193  43.3868 0009557 345.3723  14.7297 16.38260788234193
Source of the keplerian elements: AFSPC